User: anonymous   Login
Location: NJAA Observatory
(40.6819°N, 74.8979°W)
Time: 01:09:04
(UTC-05:00)
Language:

Cosmos 220 Rocket - Orbit

View from above orbital plane
View from above orbital plane
View from above satellite
View from above satellite

Ground track
Ground track

The orbit data is extracted from the following two-line orbital elements,

1  3230U 68040B   16337.92383161 +.00000352 +00000-0 +40302-4 0  9992
2  3230 074.0364 275.9350 0032112 279.4903 080.2649 14.90029017585042
Epoch (UTC): 02 December 2016 22:10:19
Eccentricity: 0.0032112
inclination: 74.0364°
perigee height: 575 km
apogee height: 620 km
right ascension of ascending node: 275.9350°
argument of perigee: 279.4903°
revolutions per day: 14.90029017
mean anomaly at epoch: 80.2649°
orbit number at epoch: 58504

The dashed part of the orbit path shows where the satellite is in the earth's shadow,  

DLR